Thermopolis, WY

4:50 AM MDT on August 20, 2017 (GMT -0600)
Thermopolis

Weather History for KTBX - December, 2012

Change the Weather History Date:

Sunday, December 16, 2012

  Actual Average (KWRL) Record (KWRL)
Temperature  
Mean Temperature 24 °F -  
Max Temperature 30 °F 32 °F 55 °F (1962)
Min Temperature 17 °F 6 °F -29 °F (1964)
Degree Days  
Heating Degree Days 42    
Moisture  
Dew Point 9 °F    
Average Humidity 56    
Maximum Humidity 93    
Minimum Humidity 39    
Precipitation  
Precipitation 0.00 in - - ()
Sea Level Pressure  
Sea Level Pressure 29.67 in    
Wind  
Wind Speed 12 mph (WSW)    
Max Wind Speed 25 mph    
Max Gust Speed 37 mph    
Visibility 10 miles    
Events Fog    
Averages and records for this station are not official NWS values.
T = Trace of Precipitation, MM = Missing Value Source: NWS Daily Summary

Daily Weather History Graph

Daily Weather History Graph

Search for Another Location

Airport or City:

Trip Planner

Search our weather history database for the weather conditions in past years. The results will help you decide how hot, cold, wet, or windy it might be!

Date:

Astronomy

Dec. 16, 2012 Rise Set
Actual Time 7:39 AM MST 4:37 PM MST
Civil Twilight 7:07 AM MST 5:10 PM MST
Nautical Twilight 6:31 AM MST 5:46 PM MST
Astronomical Twilight 5:56 AM MST 6:21 PM MST
Moon 10:09 AM MST (12/16) 9:01 PM MST (12/16)
Length of Visible Light 10h 03m
Length of Day
8h 57m
Waxing Crescent, 16% of the Moon is Illuminated
Dec 16
Waxing Crescent
Dec 19
First Quarter
Dec 28
Full
Jan 4
Last Quarter
Jan 11
New

Hourly Weather History & Observations

Time (MST) Temp. Windchill Dew Point Humidity Pressure Visibility Wind Dir Wind Speed Gust Speed Precip Events Conditions
12:15 AM 23.0 °F 12.4 °F 10.4 °F 59% 29.65 in 10.0 mi SW 10.4 mph - N/A   Unknown
12:55 AM 21.2 °F 10.9 °F 12.2 °F 68% 29.63 in 10.0 mi SW 9.2 mph - N/A   Clear
1:15 AM 21.2 °F 7.8 °F 10.4 °F 63% 29.62 in 10.0 mi SW 15.0 mph - N/A   Clear
1:55 AM 21.2 °F 6.0 °F 8.6 °F 58% 29.61 in 10.0 mi SW 19.6 mph 25.3 mph N/A   Clear
2:15 AM 21.2 °F 5.6 °F 6.8 °F 54% 29.61 in 10.0 mi SSW 20.7 mph 28.8 mph N/A   Clear
2:35 AM 21.2 °F 6.8 °F 5.0 °F 50% 29.61 in 10.0 mi SSW 17.3 mph 28.8 mph N/A   Clear
2:55 AM 21.2 °F 6.4 °F 5.0 °F 50% 29.61 in 10.0 mi SW 18.4 mph 27.6 mph N/A   Clear
3:15 AM 21.2 °F 6.8 °F 5.0 °F 50% 29.61 in 10.0 mi SW 17.3 mph 27.6 mph N/A   Clear
3:35 AM 21.2 °F 6.0 °F 3.2 °F 46% 29.60 in 10.0 mi SSW 19.6 mph 25.3 mph N/A   Clear
4:15 AM 19.4 °F 5.0 °F 3.2 °F 49% 29.60 in 10.0 mi WSW 16.1 mph - N/A   Clear
4:55 AM 19.4 °F 7.9 °F 3.2 °F 49% 29.59 in 10.0 mi West 10.4 mph - N/A   Clear
5:15 AM 19.4 °F 8.6 °F 3.2 °F 49% 29.59 in 10.0 mi West 9.2 mph - N/A   Clear
5:35 AM 19.4 °F 7.2 °F 8.6 °F 63% 29.60 in 10.0 mi WNW 11.5 mph - N/A   Clear
5:55 AM 19.4 °F 7.9 °F 6.8 °F 58% 29.60 in 10.0 mi West 10.4 mph - N/A   Clear
6:15 AM 17.6 °F 6.4 °F 10.4 °F 73% 29.61 in 10.0 mi West 9.2 mph - N/A   Clear
6:35 AM 19.4 °F 9.5 °F 17.6 °F 93% 29.61 in 0.2 mi WNW 8.1 mph - N/A Fog Light Freezing Fog
6:55 AM 19.4 °F 10.4 °F 17.6 °F 93% 29.62 in 10.0 mi WNW 6.9 mph - N/A   Scattered Clouds
7:15 AM 19.4 °F 12.8 °F 17.6 °F 93% 29.62 in 10.0 mi West 4.6 mph - N/A   Clear
7:35 AM 19.4 °F 12.8 °F 17.6 °F 93% 29.63 in 10.0 mi WSW 4.6 mph - N/A   Scattered Clouds
7:55 AM 21.2 °F - 14.0 °F 74% 29.63 in 10.0 mi Calm Calm - N/A   Scattered Clouds
8:15 AM 21.2 °F - 14.0 °F 74% 29.63 in 10.0 mi Calm Calm - N/A   Mostly Cloudy
8:35 AM 21.2 °F 16.4 °F 14.0 °F 74% 29.64 in 10.0 mi South 3.5 mph - N/A   Mostly Cloudy
8:55 AM 23.0 °F 14.7 °F 10.4 °F 59% 29.65 in 10.0 mi South 6.9 mph - N/A   Clear
9:15 AM 21.2 °F 12.6 °F 12.2 °F 68% 29.64 in 10.0 mi SE 6.9 mph - N/A   Clear
9:35 AM 21.2 °F 14.9 °F 10.4 °F 63% 29.65 in 10.0 mi SE 4.6 mph - N/A   Clear
9:55 AM 23.0 °F 17.0 °F 10.4 °F 59% 29.67 in 10.0 mi SSE 4.6 mph - N/A   Clear
10:35 AM 23.0 °F 11.7 °F 8.6 °F 54% 29.67 in 10.0 mi SW 11.5 mph - N/A   Scattered Clouds
10:55 AM 24.8 °F 14.0 °F 8.6 °F 50% 29.67 in 10.0 mi SW 11.5 mph - N/A   Clear
11:15 AM 26.6 °F 14.7 °F 6.8 °F 43% 29.67 in 10.0 mi SW 15.0 mph 21.9 mph N/A   Scattered Clouds
11:35 AM 26.6 °F 16.2 °F 10.4 °F 51% 29.67 in 10.0 mi SSW 11.5 mph 16.1 mph N/A   Scattered Clouds
11:55 AM 26.6 °F 15.7 °F 8.6 °F 47% 29.67 in 10.0 mi SW 12.7 mph 19.6 mph N/A   Scattered Clouds
12:15 PM 26.6 °F 15.7 °F 10.4 °F 51% 29.67 in 10.0 mi SW 12.7 mph 17.3 mph N/A   Scattered Clouds
12:35 PM 28.4 °F 18.5 °F 10.4 °F 47% 29.67 in 10.0 mi SSW 11.5 mph 20.7 mph N/A   Scattered Clouds
12:55 PM 26.6 °F 13.4 °F 8.6 °F 47% 29.67 in 10.0 mi WSW 18.4 mph 23.0 mph N/A   Scattered Clouds
1:15 PM 26.6 °F 15.2 °F 10.4 °F 51% 29.67 in 10.0 mi WSW 13.8 mph - N/A   Clear
1:35 PM 26.6 °F 14.7 °F 10.4 °F 51% 29.67 in 10.0 mi WSW 15.0 mph - N/A   Clear
1:55 PM 28.4 °F 19.1 °F 10.4 °F 47% 29.67 in 10.0 mi WSW 10.4 mph - N/A   Scattered Clouds
2:15 PM 30.2 °F 19.8 °F 10.4 °F 44% 29.67 in 10.0 mi SSW 13.8 mph 21.9 mph N/A   Mostly Cloudy
2:35 PM 30.2 °F 20.2 °F 10.4 °F 44% 29.68 in 10.0 mi WSW 12.7 mph 21.9 mph N/A   Overcast
2:55 PM 28.4 °F 17.5 °F 10.4 °F 47% 29.68 in 10.0 mi WSW 13.8 mph 25.3 mph N/A   Overcast
3:15 PM 28.4 °F 14.1 °F 10.4 °F 47% 29.68 in 10.0 mi WSW 24.2 mph 29.9 mph N/A   Overcast
3:35 PM 26.6 °F 12.7 °F 10.4 °F 51% 29.69 in 10.0 mi West 20.7 mph 28.8 mph N/A   Scattered Clouds
3:55 PM 24.8 °F 9.0 °F 10.4 °F 54% 29.70 in 10.0 mi WSW 25.3 mph - N/A   Scattered Clouds
4:15 PM 23.0 °F 8.3 °F 10.4 °F 59% 29.70 in 10.0 mi WSW 19.6 mph 23.0 mph N/A   Clear
4:55 PM 23.0 °F 9.2 °F 8.6 °F 54% 29.70 in 10.0 mi SW 17.3 mph 28.8 mph N/A   Clear
5:15 PM 23.0 °F 8.3 °F 8.6 °F 54% 29.71 in 10.0 mi West 19.6 mph 36.8 mph N/A   Clear
5:55 PM 21.2 °F 6.4 °F 8.6 °F 58% 29.72 in 10.0 mi West 18.4 mph - N/A   Clear
6:15 PM 21.2 °F 6.0 °F 8.6 °F 58% 29.72 in 10.0 mi WSW 19.6 mph 26.5 mph N/A   Clear
6:35 PM 21.2 °F 7.8 °F 8.6 °F 58% 29.73 in 10.0 mi WSW 15.0 mph 23.0 mph N/A   Clear
6:55 PM 19.4 °F 10.4 °F 8.6 °F 63% 29.72 in 10.0 mi West 6.9 mph - N/A   Clear
7:15 PM 21.2 °F 8.3 °F 8.6 °F 58% 29.72 in 10.0 mi WSW 13.8 mph - N/A   Clear
7:35 PM 19.4 °F 6.0 °F 6.8 °F 58% 29.73 in 10.0 mi WSW 13.8 mph - N/A   Clear
7:55 PM 21.2 °F 7.8 °F 5.0 °F 50% 29.72 in 10.0 mi WSW 15.0 mph - N/A   Clear
8:15 PM 21.2 °F 8.3 °F 3.2 °F 46% 29.72 in 10.0 mi West 13.8 mph - N/A   Clear
8:35 PM 21.2 °F 9.5 °F 5.0 °F 50% 29.72 in 10.0 mi West 11.5 mph - N/A   Clear
8:55 PM 21.2 °F 10.9 °F 3.2 °F 46% 29.72 in 10.0 mi West 9.2 mph - N/A   Clear
9:15 PM 21.2 °F 11.7 °F 5.0 °F 50% 29.72 in 10.0 mi West 8.1 mph - N/A   Clear
9:35 PM 23.0 °F 9.6 °F 1.4 °F 39% 29.72 in 10.0 mi WSW 16.1 mph - N/A   Mostly Cloudy
9:55 PM 23.0 °F 15.8 °F 5.0 °F 46% 29.72 in 10.0 mi West 5.8 mph - N/A   Overcast
10:15 PM 24.8 °F 15.3 °F 3.2 °F 40% 29.72 in 10.0 mi WSW 9.2 mph - N/A   Overcast
10:35 PM 24.8 °F 14.6 °F 3.2 °F 40% 29.71 in 10.0 mi WSW 10.4 mph - N/A   Scattered Clouds
10:55 PM 23.0 °F 13.9 °F 3.2 °F 43% 29.70 in 10.0 mi SE 8.1 mph - N/A   Clear
11:15 PM 23.0 °F 17.0 °F 3.2 °F 43% 29.70 in 10.0 mi SE 4.6 mph - N/A   Clear
11:55 PM 23.0 °F 11.1 °F 8.6 °F 54% 29.68 in 10.0 mi SSE 12.7 mph - N/A   Clear